Madison, WI

9:44 AM CDT on October 21, 2017 (GMT -0500)
Dane County Regional-Truax

Weather History for KMSN - November, 2012

Change the Weather History Date:

Monday, November 26, 2012

  Actual Average Record
Temperature  
Mean Temperature 24 °F 31 °F  
Max Temperature 33 °F 38 °F 65 °F (1990)
Min Temperature 14 °F 24 °F -5 °F (1977)
Degree Days  
Heating Degree Days 41 34  
Month to date heating degree days 676 724  
Since 1 July heating degree days 1391 1437  
Cooling Degree Days 0 0  
Month to date cooling degree days 0 0  
Year to date cooling degree days 1068 568  
Moisture  
Dew Point 14 °F    
Average Humidity 60    
Maximum Humidity 77    
Minimum Humidity 42    
Precipitation  
Precipitation T in 0.08 in 1.19 in (2015)
Month to date precipitation 0.90 2.08  
Year to date precipitation 23.76 32.43  
Snow  
Snow T in 0.30 in 3.80 in (1971)
Month to date snowfall 0.1 2.7  
Since 1 July snowfall 0.1 3.2  
Since 1 September snowfall 0.1 3.2  
Snow Depth 0.00 in    
Sea Level Pressure  
Sea Level Pressure 30.29 in    
Wind  
Wind Speed 4 mph (NW)    
Max Wind Speed 14 mph    
Max Gust Speed 17 mph    
Visibility 10 miles    
Events Snow    
T = Trace of Precipitation, MM = Missing Value Source: NWS Daily Summary

Daily Weather History Graph

Daily Weather History Graph

Search for Another Location

Airport or City:

Trip Planner

Search our weather history database for the weather conditions in past years. The results will help you decide how hot, cold, wet, or windy it might be!

Date:

Astronomy

Nov. 26, 2012 Rise Set
Actual Time 7:04 AM CST 4:25 PM CST
Civil Twilight 6:32 AM CST 4:56 PM CST
Nautical Twilight 5:57 AM CST 5:31 PM CST
Astronomical Twilight 5:23 AM CST 6:05 PM CST
Moon 3:18 PM CST (11/26) 5:12 AM CST (11/26)
Length of Visible Light 10h 24m
Length of Day
9h 20m
Waxing Gibbous, 97% of the Moon is Illuminated
Nov 26
Waxing Gibbous
Nov 28
Full
Dec 6
Last Quarter
Dec 13
New
Dec 19
First Quarter

Hourly Weather History & Observations

Time (CST) Temp. Windchill Dew Point Humidity Pressure Visibility Wind Dir Wind Speed Gust Speed Precip Events Conditions
12:53 AM 23.0 °F - 15.1 °F 72% 30.14 in 10.0 mi Calm Calm - N/A   Clear
1:53 AM 21.9 °F - 16.0 °F 78% 30.16 in 10.0 mi Calm Calm - N/A   Clear
2:53 AM 21.0 °F - 15.1 °F 78% 30.17 in 10.0 mi Calm Calm - N/A   Overcast
3:53 AM 26.1 °F 21.9 °F 18.0 °F 71% 30.18 in 10.0 mi Variable 3.5 mph - N/A   Overcast
4:53 AM 27.0 °F - 19.0 °F 72% 30.18 in 10.0 mi Calm Calm - N/A   Mostly Cloudy
5:53 AM 28.0 °F 22.8 °F 19.0 °F 69% 30.19 in 10.0 mi West 4.6 mph - N/A   Overcast
6:53 AM 28.0 °F 21.7 °F 19.9 °F 72% 30.22 in 10.0 mi WNW 5.8 mph - N/A   Overcast
7:53 AM 28.0 °F 24.2 °F 19.9 °F 72% 30.23 in 10.0 mi WNW 3.5 mph - N/A   Overcast
8:53 AM 28.0 °F 22.8 °F 21.0 °F 75% 30.26 in 10.0 mi WNW 4.6 mph - N/A   Overcast
9:53 AM 30.0 °F 26.5 °F 21.9 °F 72% 30.27 in 10.0 mi WNW 3.5 mph - N/A   Overcast
10:28 AM 30.2 °F 23.4 °F 21.2 °F 69% 30.25 in 9.0 mi NW 6.9 mph - 0.00 in Snow Light Snow
10:53 AM 30.0 °F 25.2 °F 21.9 °F 72% 30.29 in 9.0 mi NW 4.6 mph - 0.00 in Snow Light Snow
11:53 AM 30.0 °F 21.7 °F 19.9 °F 66% 30.30 in 10.0 mi NNW 9.2 mph - 0.00 in   Overcast
12:02 PM 30.2 °F 21.3 °F 19.4 °F 64% 30.26 in 10.0 mi NNW 10.4 mph - N/A   Overcast
12:53 PM 30.0 °F 21.1 °F 16.0 °F 56% 30.30 in 10.0 mi NW 10.4 mph 16.1 mph N/A   Mostly Cloudy
1:53 PM 30.9 °F 22.8 °F 14.0 °F 50% 30.30 in 10.0 mi NW 9.2 mph - N/A   Partly Cloudy
2:53 PM 30.0 °F 21.7 °F 10.0 °F 43% 30.32 in 10.0 mi NNW 9.2 mph - N/A   Partly Cloudy
3:53 PM 27.0 °F 19.5 °F 7.0 °F 43% 30.32 in 10.0 mi NNW 6.9 mph - N/A   Clear
4:53 PM 24.1 °F 16.0 °F 7.0 °F 48% 30.35 in 10.0 mi NW 6.9 mph - N/A   Clear
5:53 PM 21.9 °F 15.7 °F 7.0 °F 53% 30.37 in 10.0 mi NNW 4.6 mph - N/A   Clear
6:53 PM 21.9 °F 17.2 °F 7.0 °F 53% 30.39 in 10.0 mi NNW 3.5 mph - N/A   Clear
7:53 PM 19.9 °F - 6.1 °F 55% 30.40 in 10.0 mi Calm Calm - N/A   Clear
8:53 PM 19.9 °F 11.1 °F 6.1 °F 55% 30.41 in 10.0 mi NNW 6.9 mph - N/A   Clear
9:53 PM 17.1 °F - 6.1 °F 62% 30.41 in 10.0 mi Calm Calm - N/A   Clear
10:53 PM 17.1 °F - 7.0 °F 65% 30.41 in 10.0 mi Calm Calm - N/A   Clear
11:53 PM 16.0 °F - 7.0 °F 68% 30.41 in 10.0 mi Calm Calm - N/A   Clear